,,Stat5,,Stat1,,Stat2,,Stat3,,Stat4,,Wind1,,Wind1,
time,status,PA1M_AVG,status,PR1M_SUM,status,RH1M_AVG,status,SR1M_AVG,status,TA1M_AVG,status,W1dAve1m,status,W1sAve1m,
2002-07-28, 00:06:00,INVALID,0,VALID,0,VALID,98.8723,VALID,0,VALID,20.1348,VALID,62,VALID,0.648438,
2002-07-28, 00:07:00,VALID,918.344,VALID,0,VALID,98.8609,VALID,-0.0509425,VALID,20.1289,VALID,72,VALID,0.507813,
2002-07-28, 00:08:00,VALID,918.38,VALID,0,VALID,98.8838,VALID,-0.0169808,VALID,20.1189,VALID,56,VALID,0.805078,
2002-07-28, 00:41:00,INVALID,0,VALID,0,VALID,98.8876,VALID,0,VALID,20.0945,VALID,31,VALID,0.571615,
2002-07-28, 00:42:00,VALID,918.205,VALID,0,VALID,98.8863,VALID,0.0849042,VALID,20.1045,VALID,42,VALID,0.501302,
2002-07-28, 00:43:00,VALID,918.178,VALID,0,VALID,98.8749,VALID,0.0509425,VALID,20.0948,VALID,37,VALID,0.573828,
2002-07-28, 00:45:00,INVALID,0,VALID,0,VALID,98.8662,VALID,0,VALID,20.1113,VALID,357,VALID,0.405273,
2002-07-28, 00:46:00,VALID,918.121,VALID,0,VALID,98.852,VALID,-0.0169808,VALID,20.1122,VALID,360,VALID,0.310238,
2002-07-28, 00:47:00,VALID,918.075,VALID,0,VALID,98.8736,VALID,0,VALID,20.1284,VALID,2,VALID,0.124599,
2002-07-28, 01:20:00,INVALID,0,VALID,0,VALID,98.59,VALID,0.101885,VALID,20.0945,VALID,233,VALID,0,
2002-07-28, 01:21:00,VALID,917.618,VALID,0,VALID,98.6256,VALID,0.0849042,VALID,20.1077,VALID,235,VALID,0.0414497,
2002-07-28, 01:22:00,VALID,917.619,VALID,0,VALID,98.6638,VALID,0.0849042,VALID,20.1137,VALID,237,VALID,0,
2002-07-28, 01:24:00,INVALID,0,VALID,0,VALID,98.6923,VALID,0,VALID,20.1426,VALID,297,VALID,0.32959,
2002-07-28, 01:25:00,VALID,917.62,VALID,0,VALID,98.7197,VALID,0,VALID,20.154,VALID,20,VALID,0.504729,
2002-07-28, 01:26:00,VALID,917.613,VALID,0,VALID,98.7465,VALID,0.0169808,VALID,20.1567,VALID,30,VALID,0.639824,
2002-07-28, 01:59:00,INVALID,0,VALID,0,VALID,98.8876,VALID,0,VALID,19.985,VALID,214,VALID,0.658053,
2002-07-28, 02:00:00,VALID,917.548,VALID,0,VALID,98.9054,VALID,0,VALID,19.9832,VALID,186,VALID,0.528245,
2002-07-28, 02:01:00,VALID,917.489,VALID,0,VALID,98.9334,VALID,-0.0169808,VALID,19.99,VALID,203,VALID,0.554487,
2002-07-28, 02:34:00,INVALID,0,VALID,0,VALID,99.0822,VALID,0,VALID,19.8732,VALID,88,VALID,0.924279,
2002-07-28, 02:35:00,VALID,917.522,VALID,0,VALID,99.0847,VALID,0.0339617,VALID,19.853,VALID,94,VALID,0.594184,
2002-07-28, 02:36:00,VALID,917.537,VALID,0,VALID,99.086,VALID,0.0509425,VALID,19.8426,VALID,128,VALID,0.91723,
2002-07-28, 02:38:00,INVALID,0,VALID,0,VALID,99.0875,VALID,0.040754,VALID,19.8664,VALID,150,VALID,1.00244,
2002-07-28, 02:39:00,VALID,917.567,VALID,0,VALID,99.0733,VALID,0.101885,VALID,19.8727,VALID,151,VALID,0.971834,
2002-07-28, 02:40:00,VALID,917.569,VALID,0,VALID,99.058,VALID,0.0849042,VALID,19.8689,VALID,159,VALID,0.751002,
2002-07-28, 02:42:00,INVALID,0,VALID,0,VALID,99.0204,VALID,-0.020377,VALID,19.907,VALID,159,VALID,0.50293,
2002-07-28, 02:43:00,VALID,917.535,VALID,0,VALID,99.0008,VALID,0,VALID,19.9259,VALID,130,VALID,0.129317,
2002-07-28, 02:44:00,VALID,917.527,VALID,0,VALID,98.9741,VALID,0,VALID,19.9124,VALID,129,VALID,0.222556,
2002-07-28, 03:17:00,INVALID,0,VALID,0,VALID,98.9963,VALID,0.0509425,VALID,19.8433,VALID,30,VALID,1.79477,
2002-07-28, 03:18:00,VALID,917.418,VALID,0,VALID,99.0008,VALID,0.0849042,VALID,19.8267,VALID,23,VALID,1.89323,
2002-07-28, 03:19:00,VALID,917.407,VALID,0,VALID,99.0198,VALID,0.101885,VALID,19.8202,VALID,34,VALID,1.7488,
2002-07-28, 03:21:00,INVALID,0,VALID,0,VALID,99.06,VALID,-0.020377,VALID,19.8292,VALID,21,VALID,1.39087,
2002-07-28, 03:22:00,VALID,917.425,VALID,0,VALID,99.0631,VALID,-0.0509425,VALID,19.8227,VALID,32,VALID,1.45415,
2002-07-28, 03:23:00,VALID,917.425,VALID,0,VALID,99.0796,VALID,-0.0169808,VALID,19.822,VALID,29,VALID,1.5653,
2002-07-28, 03:56:00,INVALID,0,VALID,0,VALID,99.2233,VALID,-0.0509425,VALID,19.6413,VALID,156,VALID,0.251803,
2002-07-28, 03:57:00,VALID,917.275,VALID,0,VALID,99.2322,VALID,0,VALID,19.6242,VALID,157,VALID,0.538862,
2002-07-28, 03:58:00,VALID,917.261,VALID,0,VALID,99.2373,VALID,-0.0169808,VALID,19.6279,VALID,162,VALID,0.453726,
2002-07-28, 04:31:00,INVALID,0,VALID,0,VALID,99.2347,VALID,-0.0254712,VALID,19.4822,VALID,124,VALID,0.473257,
2002-07-28, 04:32:00,VALID,917.137,VALID,0,VALID,99.2564,VALID,-0.0679233,VALID,19.4803,VALID,142,VALID,0.570913,
2002-07-28, 04:33:00,VALID,917.116,VALID,0,VALID,99.2525,VALID,-0.0339617,VALID,19.4833,VALID,116,VALID,0.557492,
2002-07-28, 05:06:00,INVALID,0,VALID,0,VALID,99.3301,VALID,0.0509425,VALID,19.2966,VALID,89,VALID,0.64363,
2002-07-28, 05:07:00,VALID,916.954,VALID,0,VALID,99.3619,VALID,0.0509425,VALID,19.298,VALID,89,VALID,0.590144,
2002-07-28, 05:08:00,VALID,916.938,VALID,0,VALID,99.3721,VALID,0.0679233,VALID,19.3305,VALID,89,VALID,0.589143,
2002-07-28, 05:41:00,INVALID,0,VALID,0,VALID,99.4274,VALID,0.101885,VALID,19.1468,VALID,143,VALID,0.506611,
2002-07-28, 05:42:00,VALID,917.028,VALID,0,VALID,99.4458,VALID,0.101885,VALID,19.1628,VALID,150,VALID,0.215345,
2002-07-28, 05:43:00,VALID,917.049,VALID,0,VALID,99.4535,VALID,0.0509425,VALID,19.1884,VALID,140,VALID,0.636218,
2002-07-28, 05:45:00,INVALID,0,VALID,0,VALID,99.4552,VALID,-0.061131,VALID,19.2448,VALID,123,VALID,0.44043,
2002-07-28, 05:46:00,VALID,917.124,VALID,0,VALID,99.4535,VALID,-0.0339617,VALID,19.251,VALID,125,VALID,0.638363,
2002-07-28, 05:47:00,VALID,917.14,VALID,0,VALID,99.4471,VALID,-0.0679233,VALID,19.2679,VALID,115,VALID,0.786659,
2002-07-28, 05:49:00,INVALID,0,VALID,0,VALID,99.4354,VALID,-0.040754,VALID,19.2561,VALID,114,VALID,0.824219,
2002-07-28, 05:50:00,VALID,917.111,VALID,0,VALID,99.4382,VALID,0,VALID,19.2833,VALID,121,VALID,0.874178,
2002-07-28, 05:51:00,VALID,917.115,VALID,0,VALID,99.4357,VALID,0,VALID,19.29,VALID,122,VALID,0.842348,
2002-07-28, 05:53:00,INVALID,0,VALID,0,VALID,99.4354,VALID,-0.040754,VALID,19.3035,VALID,114,VALID,1.15308,
2002-07-28, 05:54:00,VALID,917.148,VALID,0,VALID,99.4369,VALID,0,VALID,19.3094,VALID,109,VALID,1.15954,
2002-07-28, 05:55:00,VALID,917.163,VALID,0,VALID,99.4395,VALID,0,VALID,19.2997,VALID,115,VALID,1.19311,
2002-07-28, 06:27:00,INVALID,0,VALID,0,VALID,99.4446,VALID,6.26593,VALID,19.2835,VALID,155,VALID,0.420673,
2002-07-28, 06:28:00,VALID,917.342,VALID,0,VALID,99.4573,VALID,6.77535,VALID,19.2771,VALID,163,VALID,0.410373,
2002-07-28, 06:29:00,VALID,917.354,VALID,0,VALID,99.4611,VALID,7.96401,VALID,19.2967,VALID,146,VALID,0.504223,
2002-07-28, 07:01:00,INVALID,0,VALID,0,VALID,99.4675,VALID,51.4723,VALID,19.52,VALID,345,VALID,0.0180664,
2002-07-28, 07:02:00,VALID,917.877,VALID,0,VALID,99.4713,VALID,59.9933,VALID,19.5643,VALID,351,VALID,0.319079,
2002-07-28, 07:03:00,VALID,917.9,VALID,0,VALID,99.4827,VALID,64.2894,VALID,19.6001,VALID,12,VALID,0.488982,
2002-07-28, 07:04:00,VALID,917.905,VALID,0,VALID,99.4827,VALID,101.087,VALID,19.6421,VALID,18,VALID,0.578742,
2002-07-28, 07:05:00,VALID,917.922,VALID,0,VALID,99.4878,VALID,151.826,VALID,19.7323,VALID,18,VALID,0.584201,
2002-07-28, 07:06:00,VALID,917.943,VALID,0,VALID,99.4903,VALID,154.593,VALID,19.868,VALID,18,VALID,0.343539,
2002-07-28, 07:07:00,VALID,917.958,VALID,0,VALID,99.484,VALID,155.969,VALID,19.9838,VALID,18,VALID,0.140008,
2002-07-28, 07:08:00,VALID,917.992,VALID,0,VALID,99.4764,VALID,158.754,VALID,20.0546,VALID,18,VALID,0,
2002-07-28, 07:09:00,VALID,917.995,VALID,0,VALID,99.4725,VALID,162.778,VALID,20.0971,VALID,18,VALID,0,
2002-07-28, 07:10:00,VALID,918.007,VALID,0,VALID,99.4662,VALID,155.816,VALID,20.1873,VALID,18,VALID,0,
2002-07-28, 07:11:00,VALID,918.02,VALID,0,VALID,99.4636,VALID,135.388,VALID,20.3165,VALID,18,VALID,0.0135691,
2002-07-28, 07:12:00,VALID,918.052,VALID,0,VALID,99.4547,VALID,130.651,VALID,20.3714,VALID,18,VALID,0.161765,
2002-07-28, 07:13:00,VALID,918.073,VALID,0,VALID,99.4573,VALID,149.958,VALID,20.3906,VALID,18,VALID,0.0679899,
2002-07-28, 07:14:00,VALID,918.1,VALID,0,VALID,99.4369,VALID,150.535,VALID,20.4905,VALID,19,VALID,0.250689,
2002-07-28, 07:15:00,VALID,918.117,VALID,0,VALID,99.4166,VALID,118.39,VALID,20.4582,VALID,20,VALID,0.100929,
2002-07-28, 07:16:00,VALID,918.134,VALID,0,VALID,99.3975,VALID,89.8286,VALID,20.358,VALID,20,VALID,0.148037,
2002-07-28, 07:17:00,VALID,918.121,VALID,0,VALID,99.3848,VALID,77.3647,VALID,20.3157,VALID,20,VALID,0,
2002-07-28, 07:18:00,VALID,918.125,VALID,0,VALID,99.3594,VALID,79.2835,VALID,20.3061,VALID,57,VALID,0.00102796,
2002-07-28, 07:19:00,VALID,918.09,VALID,0,VALID,99.3314,VALID,83.7155,VALID,20.3063,VALID,61,VALID,0,
2002-07-28, 07:20:00,VALID,918.086,VALID,0,VALID,99.2754,VALID,101.257,VALID,20.2959,VALID,61,VALID,0,
2002-07-28, 07:21:00,VALID,918.062,VALID,0,VALID,99.2284,VALID,122.703,VALID,20.3123,VALID,61,VALID,0,
2002-07-28, 07:22:00,VALID,918.077,VALID,0,VALID,99.203,VALID,134.318,VALID,20.3667,VALID,61,VALID,0,
2002-07-28, 07:23:00,VALID,918.097,VALID,0,VALID,99.1724,VALID,146.256,VALID,20.4442,VALID,61,VALID,0,
2002-07-28, 07:24:00,VALID,918.123,VALID,0,VALID,99.1686,VALID,125.879,VALID,20.5538,VALID,61,VALID,0.115451,
2002-07-28, 07:25:00,VALID,918.136,VALID,0,VALID,99.1178,VALID,127.849,VALID,20.6378,VALID,49,VALID,0.265836,
2002-07-28, 07:26:00,VALID,918.142,VALID,0,VALID,99.0237,VALID,121.26,VALID,20.6674,VALID,45,VALID,0.181055,
2002-07-28, 07:27:00,VALID,918.165,VALID,0,VALID,98.9474,VALID,119.138,VALID,20.7385,VALID,40,VALID,0.165206,
2002-07-28, 07:28:00,VALID,918.172,VALID,0,VALID,98.604,VALID,123.722,VALID,20.7382,VALID,40,VALID,0.131757,
2002-07-28, 07:29:00,VALID,918.18,VALID,0,VALID,98.3968,VALID,135.083,VALID,20.7318,VALID,40,VALID,0.0399071,
2002-07-28, 07:30:00,VALID,918.192,VALID,0,VALID,98.2175,VALID,136.645,VALID,20.7442,VALID,65,VALID,0.13447,
2002-07-28, 07:31:00,VALID,918.2,VALID,0,VALID,98.0038,VALID,135.083,VALID,20.7633,VALID,164,VALID,0.519631,
2002-07-28, 07:32:00,VALID,918.219,VALID,0,VALID,97.8144,VALID,146.494,VALID,20.8023,VALID,166,VALID,0.656939,
2002-07-28, 07:33:00,VALID,918.214,VALID,0,VALID,97.3566,VALID,158.839,VALID,20.8147,VALID,143,VALID,0.634713,
2002-07-28, 07:34:00,VALID,918.22,VALID,0,VALID,97.2345,VALID,201.376,VALID,20.8341,VALID,147,VALID,0.539063,
2002-07-28, 07:35:00,VALID,918.235,VALID,0,VALID,97.0082,VALID,195.483,VALID,20.8931,VALID,171,VALID,0.700087,
2002-07-28, 07:36:00,VALID,918.24,VALID,0,VALID,96.202,VALID,249.33,VALID,20.8793,VALID,161,VALID,0.55332,
2002-07-28, 07:37:00,VALID,918.241,VALID,0,VALID,96.1727,VALID,285.889,VALID,20.9216,VALID,147,VALID,0.545641,
2002-07-28, 07:38:00,VALID,918.248,VALID,0,VALID,95.9222,VALID,297.215,VALID,21.0024,VALID,131,VALID,0.361431,
2002-07-28, 07:39:00,VALID,918.256,VALID,0,VALID,96.085,VALID,292.461,VALID,21.1502,VALID,133,VALID,0.170351,
2002-07-28, 07:40:00,VALID,918.261,VALID,0,VALID,95.5802,VALID,256.292,VALID,21.2765,VALID,121,VALID,0.533398,
2002-07-28, 07:41:00,VALID,918.263,VALID,0,VALID,94.2475,VALID,220.36,VALID,21.3212,VALID,137,VALID,0.857227,
2002-07-28, 07:42:00,VALID,918.265,VALID,0,VALID,93.4947,VALID,194.329,VALID,21.308,VALID,137,VALID,0.70847,
2002-07-28, 07:43:00,VALID,918.28,VALID,0,VALID,93.2684,VALID,177.212,VALID,21.3051,VALID,134,VALID,0.685855,
2002-07-28, 07:44:00,VALID,918.287,VALID,0,VALID,92.6262,VALID,169.757,VALID,21.2501,VALID,138,VALID,1.00226,
2002-07-28, 07:45:00,VALID,918.299,VALID,0,VALID,93.1476,VALID,192.8,VALID,21.2143,VALID,152,VALID,1.08674,
2002-07-28, 07:46:00,VALID,918.301,VALID,0,VALID,92.8144,VALID,245.458,VALID,21.1508,VALID,151,VALID,1.33635,
2002-07-28, 07:47:00,VALID,918.292,VALID,0,VALID,93.4159,VALID,302.004,VALID,21.1187,VALID,146,VALID,1.09827,
2002-07-28, 07:48:00,VALID,918.287,VALID,0,VALID,94.0288,VALID,335.1,VALID,21.1642,VALID,149,VALID,1.15717,
2002-07-28, 07:49:00,VALID,918.261,VALID,0,VALID,93.9703,VALID,348.311,VALID,21.2122,VALID,139,VALID,0.989865,
2002-07-28, 07:50:00,VALID,918.255,VALID,0,VALID,94.086,VALID,356.597,VALID,21.2967,VALID,152,VALID,0.99977,
2002-07-28, 07:51:00,VALID,918.251,VALID,0,VALID,94.0479,VALID,359.229,VALID,21.4354,VALID,117,VALID,0.834037,
2002-07-28, 07:52:00,VALID,918.258,VALID,0,VALID,93.1311,VALID,359.926,VALID,21.5353,VALID,121,VALID,0.813702,
2002-07-28, 07:53:00,VALID,918.268,VALID,0,VALID,92.3592,VALID,290.984,VALID,21.6099,VALID,139,VALID,1.18036,
2002-07-28, 07:54:00,VALID,918.29,VALID,0,VALID,90.9185,VALID,192.902,VALID,21.5248,VALID,137,VALID,1.88877,
2002-07-28, 07:55:00,VALID,918.297,VALID,0,VALID,91.7425,VALID,330.854,VALID,21.3573,VALID,157,VALID,1.42656,
2002-07-28, 07:56:00,VALID,918.289,VALID,0,VALID,92.8627,VALID,337.29,VALID,21.3021,VALID,136,VALID,1.14668,
2002-07-28, 07:57:00,VALID,918.286,VALID,0,VALID,92.7699,VALID,356.58,VALID,21.2725,VALID,137,VALID,1.41036,
2002-07-28, 07:58:00,VALID,918.266,VALID,0,VALID,93.1069,VALID,277.059,VALID,21.2399,VALID,146,VALID,1.23197,
2002-07-28, 07:59:00,VALID,918.266,VALID,0,VALID,93.0217,VALID,306.657,VALID,21.2205,VALID,136,VALID,1.05629,
2002-07-28, 08:00:00,VALID,918.285,VALID,0,VALID,93.5138,VALID,168.195,VALID,21.2138,VALID,130,VALID,0.548394,
2002-07-28, 08:01:00,VALID,918.295,VALID,0,VALID,93.9385,VALID,140.092,VALID,21.2571,VALID,79,VALID,0.627111,
2002-07-28, 08:02:00,VALID,918.32,VALID,0,VALID,93.4426,VALID,183.682,VALID,21.283,VALID,61,VALID,0.91582,
2002-07-28, 08:03:00,VALID,918.327,VALID,0,VALID,93.4248,VALID,297.046,VALID,21.2606,VALID,57,VALID,0.733803,
2002-07-28, 08:04:00,VALID,918.327,VALID,0,VALID,94.2831,VALID,329.105,VALID,21.3635,VALID,55,VALID,0.535684,
2002-07-28, 08:05:00,VALID,918.315,VALID,0,VALID,92.9772,VALID,366.022,VALID,21.451,VALID,99,VALID,1.12141,
2002-07-28, 08:06:00,VALID,918.292,VALID,0,VALID,92.7496,VALID,365.92,VALID,21.5022,VALID,82,VALID,0.738636,
2002-07-28, 08:07:00,VALID,918.295,VALID,0,VALID,92.0921,VALID,369.741,VALID,21.5891,VALID,84,VALID,0.674679,
2002-07-28, 08:08:00,VALID,918.287,VALID,0,VALID,91.8556,VALID,374.699,VALID,21.7448,VALID,57,VALID,0.991958,
2002-07-28, 08:09:00,VALID,918.271,VALID,0,VALID,91.5275,VALID,380.082,VALID,21.9001,VALID,55,VALID,0.84565,
2002-07-28, 08:10:00,VALID,918.279,VALID,0,VALID,91.3991,VALID,387.214,VALID,22.0852,VALID,87,VALID,0.332422,
2002-07-28, 08:11:00,VALID,918.276,VALID,0,VALID,90.3589,VALID,365.461,VALID,22.3531,VALID,69,VALID,0.800564,
2002-07-28, 08:12:00,VALID,918.275,VALID,0,VALID,88.2837,VALID,397.776,VALID,22.4986,VALID,86,VALID,0.980469,
2002-07-28, 08:13:00,VALID,918.274,VALID,0,VALID,87.1291,VALID,405.876,VALID,22.5403,VALID,78,VALID,0.994243,
2002-07-28, 08:14:00,VALID,918.273,VALID,0,VALID,87.1876,VALID,418.221,VALID,22.5147,VALID,72,VALID,0.730469,
2002-07-28, 08:15:00,VALID,918.283,VALID,0,VALID,87.4037,VALID,418.56,VALID,22.5724,VALID,95,VALID,0.818216,
2002-07-28, 08:16:00,VALID,918.276,VALID,0,VALID,87.8488,VALID,420.989,VALID,22.6341,VALID,87,VALID,0.810352,
2002-07-28, 08:17:00,VALID,918.285,VALID,0,VALID,88.2583,VALID,421.889,VALID,22.6914,VALID,80,VALID,0.656445,
2002-07-28, 08:18:00,VALID,918.297,VALID,0,VALID,87.1024,VALID,369.18,VALID,22.7784,VALID,62,VALID,0.891653,
2002-07-28, 08:19:00,VALID,918.325,VALID,0,VALID,84.9317,VALID,401.325,VALID,22.8368,VALID,90,VALID,0.45662,
2002-07-28, 08:20:00,VALID,918.35,VALID,0,VALID,84.6545,VALID,445.56,VALID,22.9558,VALID,81,VALID,0.574219,
2002-07-28, 08:21:00,VALID,918.361,VALID,0,VALID,84.165,VALID,484.174,VALID,23.0625,VALID,77,VALID,1.24239,
2002-07-28, 08:22:00,VALID,918.38,VALID,0,VALID,85.2128,VALID,493.004,VALID,23.0752,VALID,69,VALID,1.1176,
2002-07-28, 08:23:00,VALID,918.393,VALID,0,VALID,86.7756,VALID,391.425,VALID,23.1239,VALID,54,VALID,0.772204,
2002-07-28, 08:24:00,VALID,918.405,VALID,0,VALID,84.0175,VALID,422.806,VALID,23.111,VALID,58,VALID,1.58778,
2002-07-28, 08:25:00,VALID,918.43,VALID,0,VALID,85.0894,VALID,437.681,VALID,23.0907,VALID,46,VALID,1.10008,
2002-07-28, 08:26:00,VALID,918.453,VALID,0,VALID,85.1721,VALID,424.062,VALID,23.2171,VALID,105,VALID,0.741039,
2002-07-28, 08:27:00,VALID,918.465,VALID,0,VALID,85.2369,VALID,359.45,VALID,23.3041,VALID,143,VALID,0.875,
2002-07-28, 08:28:00,VALID,918.454,VALID,0,VALID,85.0767,VALID,503.872,VALID,23.3358,VALID,137,VALID,0.97476,
2002-07-28, 08:29:00,VALID,918.456,VALID,0,VALID,83.8738,VALID,538.938,VALID,23.322,VALID,114,VALID,0.891964,
2002-07-28, 08:30:00,VALID,918.46,VALID,0,VALID,85.462,VALID,542.215,VALID,23.3258,VALID,46,VALID,1.33491,
2002-07-28, 08:31:00,VALID,918.448,VALID,0,VALID,83.622,VALID,527.713,VALID,23.3476,VALID,26,VALID,1.73103,
2002-07-28, 08:32:00,VALID,918.427,VALID,0,VALID,81.8061,VALID,507.116,VALID,23.3194,VALID,38,VALID,1.55605,
2002-07-28, 08:33:00,VALID,918.409,VALID,0,VALID,82.9595,VALID,560.435,VALID,23.3147,VALID,73,VALID,1.49116,
2002-07-28, 08:34:00,VALID,918.403,VALID,0,VALID,84.315,VALID,453.983,VALID,23.2723,VALID,75,VALID,1.39964,
2002-07-28, 08:35:00,VALID,918.396,VALID,0,VALID,85.9503,VALID,306.538,VALID,23.2206,VALID,39,VALID,1.21554,
2002-07-28, 08:36:00,VALID,918.387,VALID,0,VALID,85.8651,VALID,260.316,VALID,23.2306,VALID,89,VALID,0.717448,
2002-07-28, 08:37:00,VALID,918.387,VALID,0,VALID,84.3964,VALID,240.839,VALID,23.2339,VALID,53,VALID,1.63999,
2002-07-28, 08:38:00,VALID,918.372,VALID,0,VALID,84.1955,VALID,237.171,VALID,23.124,VALID,40,VALID,1.16543,
2002-07-28, 08:39:00,VALID,918.383,VALID,0,VALID,85.4722,VALID,235.456,VALID,23.1043,VALID,97,VALID,0.8992,
2002-07-28, 08:40:00,VALID,918.374,VALID,0,VALID,85.5586,VALID,241.433,VALID,23.0652,VALID,65,VALID,0.422086,
2002-07-28, 08:41:00,VALID,918.378,VALID,0,VALID,85.6833,VALID,250.28,VALID,23.0617,VALID,61,VALID,1.14759,
2002-07-28, 08:42:00,VALID,918.364,VALID,0,VALID,84.6749,VALID,247.597,VALID,23.0003,VALID,15,VALID,1.11506,
2002-07-28, 08:43:00,VALID,918.359,VALID,0,VALID,84.1446,VALID,244.507,VALID,22.965,VALID,23,VALID,1.26703,
2002-07-28, 08:44:00,VALID,918.336,VALID,0,VALID,83.8089,VALID,240.398,VALID,22.9066,VALID,29,VALID,1.12776,
2002-07-28, 08:45:00,VALID,918.303,VALID,0,VALID,84.418,VALID,241.518,VALID,22.8425,VALID,20,VALID,1.24789,
2002-07-28, 08:46:00,VALID,918.284,VALID,0,VALID,84.5541,VALID,255.629,VALID,22.8469,VALID,19,VALID,1.09238,
2002-07-28, 08:47:00,VALID,918.264,VALID,0,VALID,84.2794,VALID,269.248,VALID,22.9153,VALID,27,VALID,1.04622,
2002-07-28, 08:48:00,VALID,918.237,VALID,0,VALID,83.3104,VALID,428.817,VALID,22.9186,VALID,35,VALID,0.45957,
2002-07-28, 08:49:00,VALID,918.212,VALID,0,VALID,84.2985,VALID,409.883,VALID,23.0246,VALID,48,VALID,0.643914,
2002-07-28, 08:50:00,VALID,918.193,VALID,0,VALID,84.638,VALID,403.227,VALID,23.148,VALID,49,VALID,1.09025,
2002-07-28, 08:51:00,VALID,918.181,VALID,0,VALID,83.4262,VALID,443.879,VALID,23.2159,VALID,67,VALID,1.11185,
2002-07-28, 08:52:00,VALID,918.185,VALID,0,VALID,82.4508,VALID,609.187,VALID,23.2838,VALID,43,VALID,0.998242,
2002-07-28, 08:53:00,VALID,918.189,VALID,0,VALID,82.1902,VALID,620.938,VALID,23.4328,VALID,47,VALID,1.0709,
2002-07-28, 08:54:00,VALID,918.196,VALID,0,VALID,80.9414,VALID,638.055,VALID,23.6068,VALID,55,VALID,0.498355,
2002-07-28, 08:55:00,VALID,918.207,VALID,0,VALID,81.3331,VALID,512.21,VALID,23.7831,VALID,5,VALID,0.689556,
2002-07-28, 08:56:00,VALID,918.226,VALID,0,VALID,80.2166,VALID,311.293,VALID,23.9376,VALID,66,VALID,0.528166,
2002-07-28, 08:57:00,VALID,918.241,VALID,0,VALID,79.8021,VALID,308.881,VALID,24.0569,VALID,117,VALID,0.785457,
2002-07-28, 08:58:00,VALID,918.24,VALID,0,VALID,80.3921,VALID,277.738,VALID,24.0896,VALID,81,VALID,0.701686,
2002-07-28, 08:59:00,VALID,918.249,VALID,0,VALID,79.4664,VALID,261.012,VALID,24.0052,VALID,33,VALID,1.20292,
2002-07-28, 09:00:00,VALID,918.26,VALID,0,VALID,79.0989,VALID,272.508,VALID,23.821,VALID,40,VALID,1.22771,
2002-07-28, 09:01:00,VALID,918.264,VALID,0,VALID,80.326,VALID,309.815,VALID,23.6899,VALID,30,VALID,0.827069,
2002-07-28, 09:02:00,VALID,918.26,VALID,0,VALID,79.9127,VALID,312.753,VALID,23.6932,VALID,71,VALID,1.17073,
2002-07-28, 09:03:00,VALID,918.247,VALID,0,VALID,80.1976,VALID,401.97,VALID,23.5738,VALID,33,VALID,1.53463,
2002-07-28, 09:04:00,VALID,918.232,VALID,0,VALID,82.5475,VALID,458.584,VALID,23.506,VALID,40,VALID,0.666867,
2002-07-28, 09:05:00,VALID,918.231,VALID,0,VALID,83.7682,VALID,372.814,VALID,23.694,VALID,27,VALID,0.700223,
2002-07-28, 09:06:00,VALID,918.223,VALID,0,VALID,81.918,VALID,448.684,VALID,23.7998,VALID,65,VALID,1.18133,
2002-07-28, 09:07:00,VALID,918.215,VALID,0,VALID,81.9918,VALID,698.014,VALID,23.7804,VALID,57,VALID,1.13906,
2002-07-28, 09:08:00,VALID,918.211,VALID,0,VALID,81.7705,VALID,672.118,VALID,23.8677,VALID,31,VALID,0.751953,
2002-07-28, 09:09:00,VALID,918.207,VALID,0,VALID,80.0564,VALID,426.355,VALID,24.0905,VALID,29,VALID,0.228413,
2002-07-28, 09:10:00,VALID,918.227,VALID,0,VALID,78.2215,VALID,405.519,VALID,24.2715,VALID,115,VALID,0.918069,
2002-07-28, 09:11:00,VALID,918.216,VALID,0,VALID,78.6093,VALID,560.996,VALID,24.2651,VALID,122,VALID,1.06609,
2002-07-28, 09:12:00,VALID,918.225,VALID,0,VALID,79.3697,VALID,461.98,VALID,24.2136,VALID,140,VALID,1.50564,
2002-07-28, 09:13:00,VALID,918.233,VALID,0,VALID,79.9102,VALID,457.43,VALID,24.0902,VALID,105,VALID,0.827914,
2002-07-28, 09:14:00,VALID,918.25,VALID,0,VALID,80.354,VALID,410.342,VALID,24.074,VALID,167,VALID,0.814453,
2002-07-28, 09:15:00,VALID,918.259,VALID,0,VALID,79.4244,VALID,589.829,VALID,24.1516,VALID,186,VALID,0.766959,
2002-07-28, 09:16:00,VALID,918.254,VALID,0,VALID,78.5152,VALID,371.456,VALID,24.2956,VALID,177,VALID,0.675676,
2002-07-28, 09:17:00,VALID,918.248,VALID,0,VALID,78.1185,VALID,375.803,VALID,24.4375,VALID,93,VALID,0.706292,
2002-07-28, 09:18:00,VALID,918.223,VALID,0,VALID,76.7769,VALID,339.651,VALID,24.4334,VALID,62,VALID,1.02344,
2002-07-28, 09:19:00,VALID,918.198,VALID,0,VALID,78.6208,VALID,516.149,VALID,24.4046,VALID,13,VALID,0.727564,
2002-07-28, 09:20:00,VALID,918.172,VALID,0,VALID,75.9682,VALID,511.378,VALID,24.4466,VALID,12,VALID,0.80239,
2002-07-28, 09:21:00,VALID,918.154,VALID,0,VALID,76.6472,VALID,432.773,VALID,24.5019,VALID,85,VALID,0.578547,
2002-07-28, 09:22:00,VALID,918.115,VALID,0,VALID,75.293,VALID,585.244,VALID,24.6244,VALID,157,VALID,0.669531,
2002-07-28, 09:23:00,VALID,918.112,VALID,0,VALID,74.5618,VALID,532.468,VALID,24.7182,VALID,160,VALID,0.593316,
2002-07-28, 09:24:00,VALID,918.106,VALID,0,VALID,74.1155,VALID,579.675,VALID,24.8216,VALID,143,VALID,0.703906,
2002-07-28, 09:25:00,VALID,918.095,VALID,0,VALID,71.7503,VALID,663.933,VALID,24.9251,VALID,154,VALID,0.353413,
2002-07-28, 09:26:00,VALID,918.106,VALID,0,VALID,73.7225,VALID,707.031,VALID,25.1056,VALID,73,VALID,0.724712,
2002-07-28, 09:27:00,VALID,918.098,VALID,0,VALID,71.7923,VALID,706.301,VALID,25.2999,VALID,26,VALID,1.61604,
2002-07-28, 09:28:00,VALID,918.105,VALID,0,VALID,71.2353,VALID,687.214,VALID,25.493,VALID,47,VALID,0.810547,
2002-07-28, 09:29:00,VALID,918.114,VALID,0,VALID,71.1005,VALID,557.922,VALID,25.8299,VALID,39,VALID,0.461523,
2002-07-28, 09:30:00,VALID,918.123,VALID,0,VALID,69.277,VALID,633.521,VALID,26.0923,VALID,120,VALID,0.466694,
2002-07-28, 09:31:00,VALID,918.136,VALID,0,VALID,67.2323,VALID,690.424,VALID,26.3038,VALID,170,VALID,0.285567,
2002-07-28, 09:32:00,VALID,918.145,VALID,0,VALID,68.2457,VALID,687.333,VALID,26.5012,VALID,142,VALID,0.980058,
2002-07-28, 09:33:00,VALID,918.155,VALID,0,VALID,66.8635,VALID,689.558,VALID,26.5545,VALID,146,VALID,1.00982,
2002-07-28, 09:34:00,VALID,918.18,VALID,0,VALID,66.2735,VALID,693.259,VALID,26.5397,VALID,139,VALID,1.05695,
2002-07-28, 09:35:00,VALID,918.185,VALID,0,VALID,66.3104,VALID,709.272,VALID,26.4164,VALID,168,VALID,0.691406,
2002-07-28, 09:36:00,VALID,918.188,VALID,0,VALID,66.5787,VALID,717.44,VALID,26.3507,VALID,167,VALID,0.737592,
2002-07-28, 09:37:00,VALID,918.174,VALID,0,VALID,65.1735,VALID,716.863,VALID,26.3956,VALID,178,VALID,0.940034,
2002-07-28, 09:38:00,VALID,918.163,VALID,0,VALID,65.9073,VALID,694.041,VALID,26.2921,VALID,187,VALID,0.822151,
2002-07-28, 09:39:00,VALID,918.159,VALID,0,VALID,66.9525,VALID,635.694,VALID,26.3306,VALID,143,VALID,0.995355,